[[{"header":{"parameterUnit":"m.s-1","parameterCategory":1,"la1":30.2991,"la2":30.254,"lo1":-89.0895,"lo2":-89.0444,"dy":0.0017,"dx":0.0017,"nx":28,"ny":28,"refTime":"2023-10-12T09:00:00:Z","depth":0,"parameterNumber":2,"parameterNumberName":"U-component_of_WINDS"},"data":[0,0,0,0,0,0,0,0,0,0,0,0,0,0,0,0,0,0,0,0,0,0,0,0,0,0,0,0,0,0,0,0,0,0,0,0,0,0,0,0,0,0,0,0,0,0,0,0,0,0,0,0,0,0,0,0,0,0,-0.2414,-0.2415,0,-0.2434,-0.2434,-0.2434,-0.2447,-0.2448,-0.2448,-0.2448,-0.2468,-0.2468,-0.2468,0,0,0,0,0,0,0,0,0,0,0,0,0,-0.2391,-0.2392,-0.2414,-0.2415,-0.2415,-0.2434,-0.2434,-0.2434,-0.2447,-0.2448,-0.2448,-0.2448,-0.2467,-0.2468,-0.2468,0,0,0,0,0,0,0,0,0,0,0,0,0,-0.2405,-0.2392,-0.2414,-0.2424,-0.2425,-0.2434,-0.2434,-0.2434,-0.2447,-0.2448,-0.2448,-0.2448,-0.2467,-0.2468,-0.2469,-0.2469,0,0,-0.2471,-0.2471,0,0,0,0,0,0,0,0,-0.2404,-0.2406,-0.2422,-0.2423,-0.2424,-0.2438,-0.2433,-0.2446,-0.2447,-0.2439,-0.2448,-0.2448,-0.2458,-0.2459,-0.2462,-0.247,-0.2471,-0.2471,-0.2471,-0.2471,-0.2471,0,0,0,0,0,0,0,-0.2403,-0.2405,-0.2422,-0.2422,-0.2424,-0.2428,-0.243,-0.2436,-0.2447,-0.244,-0.2441,-0.2443,-0.2458,-0.2462,-0.2463,-0.2472,-0.2471,-0.2471,-0.2472,-0.2472,-0.2484,-0.2483,0,0,0,0,0,0,-0.2401,-0.2404,-0.2421,-0.2423,-0.2414,-0.2428,-0.243,-0.2434,-0.2447,-0.2449,-0.2443,-0.2443,-0.2461,-0.2462,-0.2464,-0.2467,-0.2471,-0.2472,-0.2472,-0.2484,-0.2484,-0.2483,0,0,0,0,0,0,-0.24,-0.2402,-0.2421,-0.2414,-0.2416,-0.2428,-0.2432,-0.2434,-0.2437,-0.2449,-0.2452,-0.2444,-0.2461,-0.2463,-0.2468,-0.2468,-0.2472,-0.2473,-0.2484,-0.2484,-0.2483,-0.2473,0,0,0,0,0,0,-0.2399,-0.2402,-0.2402,-0.2414,-0.2417,-0.2424,-0.2432,-0.2434,-0.2438,-0.244,-0.2451,-0.2453,-0.2461,-0.2467,-0.2469,-0.2469,-0.2473,-0.2484,-0.2484,-0.2484,-0.2473,-0.2472,-0.2471,0,0,0,0,0,-0.2398,-0.2397,-0.2401,-0.2403,-0.2417,-0.2424,-0.2426,-0.2435,-0.2438,-0.2439,-0.2447,-0.2453,-0.2468,-0.2468,-0.247,-0.247,-0.2484,-0.2484,-0.2484,-0.2474,-0.2472,-0.2471,0,0,0,0,0,0,-0.2384,-0.2399,-0.2404,-0.2406,-0.2414,-0.2427,-0.2427,-0.2433,-0.244,-0.2441,-0.2452,-0.2455,-0.2459,-0.2465,-0.2465,-0.2473,-0.2477,-0.2477,-0.2468,-0.2467,-0.2467,-0.2465,-0.2474,0,0,0,0,0,-0.2382,-0.2386,-0.2399,-0.24,-0.2404,-0.2415,-0.2419,-0.2425,-0.2433,-0.2437,-0.2445,-0.2453,-0.246,-0.2464,-0.2471,-0.2474,-0.2478,-0.2475,-0.2475,-0.2474,-0.2474,-0.2478,-0.2478,-0.2483,-0.2483,-0.2483,0,0,-0.2376,-0.2385,-0.2387,-0.2398,-0.2404,-0.241,-0.2417,-0.2422,-0.2427,-0.2437,-0.2443,-0.245,-0.246,-0.2465,-0.2468,-0.247,-0.2473,-0.2474,-0.2473,-0.2473,-0.2478,-0.2477,-0.2477,-0.2483,-0.2483,-0.2483,0,0,-0.2369,-0.2375,-0.2378,-0.2385,-0.2395,-0.2403,-0.2403,-0.2415,-0.242,-0.2427,-0.2436,-0.2441,-0.2452,-0.2459,-0.2464,-0.2462,-0.2468,-0.2464,-0.2459,-0.2463,-0.2463,-0.2463,-0.2463,-0.2463,-0.2464,-0.2464,-0.2464,0,-0.236,-0.2368,-0.2378,-0.2383,-0.2388,-0.2399,-0.2402,-0.2409,-0.2421,-0.2424,-0.2427,-0.2442,-0.2449,-0.2457,-0.2457,-0.246,-0.2462,-0.2463,-0.2462,-0.2462,-0.2462,-0.2462,-0.2462,-0.2464,-0.2464,-0.2464,-0.2464,0,-0.2358,-0.2363,-0.2364,-0.2376,-0.2382,-0.2386,-0.2397,-0.2402,-0.2408,-0.2416,-0.2423,-0.2433,-0.2443,-0.2445,-0.2451,-0.2454,-0.2455,-0.246,-0.2464,-0.2461,-0.2461,-0.2461,-0.2463,-0.2463,-0.2463,-0.2463,0,0,-0.2341,-0.236,-0.236,-0.2366,-0.2379,-0.2384,-0.239,-0.2399,-0.2403,-0.2412,-0.2417,-0.2427,-0.2432,-0.2438,-0.2445,-0.2449,-0.2448,-0.2453,-0.2454,-0.2452,-0.2454,-0.245,-0.245,-0.2452,-0.2453,-0.2453,-0.2453,0,-0.2336,-0.2345,-0.2356,-0.2362,-0.2368,-0.238,-0.2385,-0.2394,-0.2402,-0.2409,-0.2417,-0.2425,-0.243,-0.2434,-0.2438,-0.2447,-0.2448,-0.2447,-0.2458,-0.2459,-0.2456,-0.245,-0.2447,-0.2447,-0.2453,-0.2453,-0.2453,0,-0.2331,-0.2339,-0.2347,-0.2361,-0.2364,-0.2368,-0.2379,-0.2385,-0.2396,-0.2402,-0.241,-0.2418,-0.2425,-0.2429,-0.244,-0.2439,-0.2444,-0.245,-0.245,-0.2452,-0.2456,-0.2452,-0.2447,-0.2447,-0.2454,-0.2454,-0.2454,0,-0.2319,-0.2332,-0.2339,-0.2344,-0.236,-0.2363,-0.2371,-0.2382,-0.2388,-0.2398,-0.2402,-0.2412,-0.2418,-0.2426,-0.2437,-0.2439,-0.2448,-0.2452,-0.2453,-0.2453,-0.2454,-0.2454,-0.245,-0.2457,-0.2457,-0.2457,-0.2457,0,-0.2312,-0.2316,-0.2334,-0.2338,-0.2343,-0.2356,-0.2361,-0.237,-0.238,-0.2387,-0.2397,-0.2403,-0.2417,-0.2425,-0.2434,-0.2443,-0.2445,-0.2451,-0.2453,-0.245,-0.2449,-0.2453,-0.2454,-0.2457,-0.2457,-0.2457,-0.2457,0,-0.2299,-0.2311,-0.2319,-0.2335,-0.2339,-0.2343,-0.2357,-0.2362,-0.2371,-0.2379,-0.2382,-0.2396,-0.2406,-0.2419,-0.2432,-0.2439,-0.2447,-0.245,-0.2443,-0.2444,-0.2445,-0.2445,-0.2444,-0.2445,-0.2451,-0.245,-0.245,0,-0.2295,-0.2298,-0.2315,-0.232,-0.2327,-0.2335,-0.2342,-0.2355,-0.2361,-0.2376,-0.2379,-0.239,-0.24,-0.2416,-0.2428,-0.2439,-0.2443,-0.2442,-0.2445,-0.2442,-0.2444,-0.2444,-0.2445,-0.2441,-0.2441,-0.2441,-0.2441,0,-0.2285,-0.2291,-0.23,-0.2311,-0.2319,-0.2328,-0.2338,-0.2342,-0.2358,-0.2364,-0.2375,-0.2383,-0.2398,-0.2409,-0.2422,-0.2431,-0.2439,-0.244,-0.2441,-0.2438,-0.2434,-0.2437,-0.2441,-0.244,-0.244,-0.244,-0.244,-0.244,-0.2277,-0.2281,-0.2294,-0.2304,-0.2313,-0.2323,-0.2329,-0.2339,-0.2348,-0.2362,-0.2369,-0.238,-0.2393,-0.2412,-0.242,-0.2429,-0.2432,-0.2433,-0.2434,-0.2434,-0.2433,-0.2432,-0.2432,-0.2432,-0.2432,-0.2432,-0.2432,0,-0.2269,-0.2278,-0.2287,-0.2301,-0.2309,-0.2317,-0.2329,-0.2335,-0.2345,-0.2356,-0.2366,-0.2379,-0.2391,-0.2405,-0.2417,-0.2422,-0.2426,-0.2425,-0.2425,-0.2427,-0.243,-0.2428,-0.2422,-0.2422,-0.2422,-0.2422,-0.2422,-0.2422,-0.2265,-0.2274,-0.2282,-0.2295,-0.2305,-0.2316,-0.2322,-0.2332,-0.2341,-0.2356,-0.2365,-0.2374,-0.2387,-0.2401,-0.2413,-0.2417,-0.2421,-0.2419,-0.2424,-0.2426,-0.2427,-0.2428,-0.2426,-0.242,-0.242,-0.2421,-0.2421,-0.2421]},{"header":{"parameterUnit":"m.s-1","parameterCategory":1,"la1":30.2991,"la2":30.254,"lo1":-89.0895,"lo2":-89.0444,"dy":0.0017,"dx":0.0017,"nx":28,"ny":28,"refTime":"2023-10-12T09:00:00:Z","depth":0,"parameterNumber":3,"parameterNumberName":"V-component_of_WINDS"},"data":[0,0,0,0,0,0,0,0,0,0,0,0,0,0,0,0,0,0,0,0,0,0,0,0,0,0,0,0,0,0,0,0,0,0,0,0,0,0,0,0,0,0,0,0,0,0,0,0,0,0,0,0,0,0,0,0,0,0,2.2544,2.2543,0,2.2451,2.245,2.2449,2.2387,2.2386,2.2386,2.2385,2.2284,2.2282,2.2279,0,0,0,0,0,0,0,0,0,0,0,0,0,2.2661,2.2659,2.2544,2.2543,2.2542,2.2451,2.245,2.2449,2.2387,2.2386,2.2386,2.2385,2.2285,2.2282,2.2279,0,0,0,0,0,0,0,0,0,0,0,0,0,2.2593,2.2658,2.2544,2.25,2.2495,2.2452,2.245,2.2448,2.2387,2.2386,2.2385,2.2385,2.2286,2.2282,2.2279,2.227,0,0,2.2268,2.2267,0,0,0,0,0,0,0,0,2.2597,2.2589,2.2508,2.2503,2.2497,2.243,2.2454,2.2388,2.2387,2.2428,2.2385,2.2385,2.2333,2.2325,2.2309,2.2265,2.2261,2.2268,2.2266,2.2264,2.2263,0,0,0,0,0,0,0,2.2602,2.2592,2.2507,2.2507,2.25,2.2482,2.2472,2.2441,2.2385,2.2424,2.2419,2.241,2.233,2.2312,2.2306,2.2259,2.2268,2.2265,2.2263,2.2261,2.22,2.2201,0,0,0,0,0,0,2.2614,2.2597,2.251,2.2504,2.2547,2.2481,2.2469,2.2452,2.2385,2.2374,2.241,2.2407,2.2319,2.231,2.2302,2.2286,2.2264,2.2261,2.2259,2.22,2.2201,2.2201,0,0,0,0,0,0,2.2617,2.2607,2.2514,2.2549,2.2536,2.248,2.2461,2.2451,2.2433,2.2374,2.2363,2.2404,2.2318,2.2307,2.2278,2.2281,2.226,2.2256,2.2199,2.22,2.2201,2.2254,0,0,0,0,0,0,2.2621,2.2609,2.2606,2.255,2.2534,2.2494,2.2461,2.2449,2.2428,2.2423,2.2365,2.2355,2.2317,2.2284,2.2275,2.2276,2.2254,2.2199,2.22,2.2201,2.2251,2.2256,2.226,0,0,0,0,0,2.2625,2.2624,2.2607,2.2597,2.2531,2.2494,2.2485,2.2443,2.2429,2.2425,2.2387,2.2357,2.2283,2.2281,2.2271,2.2271,2.2198,2.22,2.2201,2.2249,2.2255,2.226,0,0,0,0,0,0,2.2681,2.2616,2.2596,2.2577,2.2542,2.2484,2.2478,2.2451,2.2417,2.2413,2.236,2.2348,2.2323,2.2294,2.2294,2.2257,2.2237,2.2236,2.2277,2.2282,2.2287,2.2293,2.2251,0,0,0,0,0,2.2691,2.2669,2.2613,2.2601,2.2585,2.2535,2.2517,2.2488,2.2448,2.2432,2.2392,2.2353,2.232,2.23,2.2267,2.2247,2.2232,2.2242,2.2246,2.225,2.2249,2.2234,2.2237,2.2204,2.2204,2.2204,0,0,2.2712,2.2674,2.2663,2.2612,2.2581,2.2556,2.2522,2.2498,2.2479,2.2428,2.2398,2.2367,2.2319,2.2295,2.2281,2.2269,2.2255,2.2251,2.2255,2.2252,2.2235,2.2238,2.2241,2.2205,2.2205,2.2205,0,0,2.2737,2.2707,2.2693,2.2663,2.2618,2.2584,2.2581,2.2527,2.2504,2.2474,2.2435,2.241,2.2356,2.2323,2.2299,2.2311,2.2281,2.2301,2.2323,2.2309,2.2311,2.2313,2.2315,2.2317,2.2301,2.2301,2.2301,0,2.2768,2.2732,2.2689,2.2667,2.2645,2.2599,2.2583,2.2556,2.2501,2.2485,2.2473,2.2403,2.2368,2.2334,2.2337,2.232,2.2312,2.2307,2.2315,2.2316,2.2318,2.2319,2.232,2.2304,2.2303,2.2303,2.2303,0,2.277,2.2746,2.274,2.269,2.2667,2.2648,2.26,2.2582,2.2554,2.2521,2.2489,2.2445,2.2402,2.2392,2.2364,2.2353,2.2346,2.2326,2.2303,2.2324,2.2324,2.2324,2.2307,2.2306,2.2306,2.2305,0,0,2.2827,2.2754,2.2752,2.2728,2.2674,2.2653,2.2631,2.2591,2.2574,2.2538,2.2516,2.2471,2.2451,2.2424,2.2392,2.238,2.2389,2.236,2.2358,2.2365,2.237,2.2385,2.2387,2.2369,2.2369,2.2369,2.2374,0,2.2842,2.2803,2.2764,2.2737,2.2712,2.2668,2.2649,2.2612,2.258,2.2552,2.2516,2.2484,2.2462,2.2445,2.2431,2.2391,2.2389,2.239,2.2345,2.2344,2.2358,2.2387,2.2403,2.241,2.2374,2.2374,2.2373,0,2.2855,2.2822,2.2794,2.2741,2.2728,2.2712,2.267,2.2646,2.2602,2.2579,2.2549,2.2515,2.2487,2.2469,2.2428,2.243,2.2409,2.2386,2.2385,2.2378,2.2359,2.2379,2.2411,2.2411,2.2373,2.2373,2.2373,0,2.2897,2.2845,2.2821,2.2802,2.274,2.2729,2.2702,2.2658,2.2636,2.2599,2.2583,2.2543,2.252,2.2488,2.2443,2.2435,2.2405,2.2384,2.2383,2.2384,2.2378,2.2379,2.2406,2.2368,2.2368,2.2368,2.2368,0,2.2917,2.29,2.2839,2.2824,2.2803,2.2757,2.2737,2.2706,2.2667,2.2643,2.2602,2.258,2.2523,2.2493,2.2458,2.2427,2.2418,2.2396,2.2387,2.2399,2.2402,2.2384,2.2381,2.2368,2.2368,2.2368,2.2368,0,2.2959,2.2918,2.2888,2.2832,2.2818,2.2805,2.2756,2.2738,2.2704,2.2674,2.2664,2.261,2.2572,2.2525,2.2472,2.2448,2.242,2.2407,2.2436,2.243,2.2431,2.2431,2.2446,2.2444,2.241,2.241,2.2411,0,2.2974,2.2961,2.2904,2.2886,2.2861,2.2832,2.281,2.2763,2.274,2.2689,2.2677,2.2637,2.2602,2.2544,2.2498,2.2456,2.244,2.2448,2.2433,2.2446,2.2437,2.2438,2.2436,2.2451,2.2452,2.2453,2.2453,0,2.3004,2.2984,2.2954,2.2916,2.289,2.2858,2.2823,2.281,2.2756,2.2732,2.2694,2.2668,2.2614,2.2574,2.2526,2.2495,2.2464,2.2458,2.2455,2.2467,2.2484,2.2473,2.2444,2.2458,2.2457,2.2457,2.2457,2.2456,2.3031,2.3017,2.2974,2.2941,2.2911,2.2879,2.286,2.2824,2.2792,2.2747,2.272,2.2683,2.2637,2.257,2.2541,2.2509,2.2497,2.2494,2.2492,2.2492,2.2495,2.2491,2.25,2.25,2.25,2.2499,2.2499,0,2.3057,2.3028,2.2998,2.2952,2.2925,2.2901,2.2861,2.284,2.2808,2.277,2.2737,2.2692,2.2653,2.2604,2.256,2.2544,2.2528,2.2533,2.2533,2.2526,2.2509,2.2515,2.2547,2.2547,2.2547,2.2547,2.2547,2.2547,2.3067,2.3041,2.3016,2.2973,2.2942,2.2907,2.2886,2.2856,2.2825,2.2778,2.2746,2.2715,2.2671,2.2623,2.2585,2.2571,2.2556,2.2566,2.2547,2.2532,2.2528,2.2524,2.2529,2.2563,2.2563,2.2567,2.2567,2.2567]}]]